Regional Weather Roundup
Issued by NWS Sterling, VA

Home | Current Version | Previous Version | Text Only | Print | Product List | Glossary On
Versions: 1 2 3 4 5 6 7 8 9 10 11 12 13 14 15 16 17 18 19 20 21 22 23 24 25 26 27
000
ASUS41 KLWX 250811
RWRLWX

REGIONAL WEATHER ROUNDUP
NATIONAL WEATHER SERVICE BALTIMORE MD/WASHINGTON DC
400 AM EDT TUE APR 25 2017

Note: "FAIR" indicates few or no clouds below 12,000 feet
with no significant weather and/or obstructions to visibility.
 TC=TEMPERATURE CELSIUS

 * =Non NWS site. Station does not report precipitation (e.g. rain,
    snow, etc.), thunder, or fog.

DCZ001-MDZ009-015-VAZ040>042-051-053>054-250900-
WASHINGTON METRO

CITY           SKY/WX    TMP DP  RH WIND       PRES   REMARKS
WASHINGTON NAT CLOUDY    55  53  93 NE15      29.90F
DULLES         CLOUDY    52  50  93 NE12      29.90F
ANDREWS AFB    CLOUDY    52  51  96 NE12      29.88F
FT BELVOIR     CLOUDY    54  50  87 NE6       29.88F
QUANTICO       CLOUDY    56  55  97 NE17G25   29.87F
COLLEGE PARK*  CLOUDY    53  50  92 NE8       29.89F
LEESBURG*      CLOUDY    52  52 100 NE8       29.93F
MANASSAS*        N/A     53  51  93 N9        29.89F

$$

MDZ006>007-011-014-250900-
BALTIMORE METRO

CITY           SKY/WX    TMP DP  RH WIND       PRES   REMARKS
BWI AIRPORT    CLOUDY    53  53 100 NE10      29.91F
MD SCIENCE CTR   N/A     54  50  86 MISG      29.93F
MARTIN STATE   CLOUDY    54  54 100 NE5       29.94F
ANNAPOLIS      CLOUDY    56  53  90 NE8       29.90F
FORT MEADE*    CLOUDY    52  50  93 NE8       29.93F

$$

MDZ012-015-019>023-250900-
MARYLAND EASTERN SHORE

CITY           SKY/WX    TMP DP  RH WIND       PRES   REMARKS
OCEAN CITY     FOG       54  53  97 NE10      29.86F VSB 3/4
SALISBURY      FOG       54  54 100 NE13      29.86F VSB 3/4
BAY BRIDGE AP* CLOUDY    54  54 100 E9G17     29.91S
CAMBRIDGE*     CLOUDY    55  55 100 NE9G16    29.87F FOG
EASTON*        CLOUDY    56  55  94 E14G20    29.93S FOG

$$

MDZ017>025-250900-
SOUTHERN MARYLAND

CITY           SKY/WX    TMP DP  RH WIND       PRES   REMARKS
PATUXENT RIVER CLOUDY    55  55 100 NE10      29.84F
ST INIGOES     CLOUDY    57  56  96 NE13      29.82F
LEONARDTOWN*   CLOUDY    55  54  94 NE5       29.86F

$$

MDZ003>005-250900-
NORTH CENTRAL MARYLAND

CITY           SKY/WX    TMP DP  RH WIND       PRES   REMARKS
FREDERICK*     CLOUDY    52  52 100 N10       29.97F
HAGERSTOWN APT LGT RAIN  51  46  83 NE13      29.95F
WESTMINSTER*   RAIN      52  50  93 E8        29.95F

$$

MDZ501>502-250900-
WESTERN MARYLAND

CITY           SKY/WX    TMP DP  RH WIND       PRES   REMARKS
OAKLAND*       FOG       41  41 100 E18G26    29.90S VSB 1/4
CUMBERLAND*    CLOUDY    50  46  87 CALM      29.98F

$$

VAZ025>031-250900-
SHENANDOAH VALLEY

CITY           SKY/WX    TMP DP  RH WIND       PRES   REMARKS
WINCHESTER*    CLOUDY    46  46 100 N5        29.92F
FRONT ROYAL*   CLOUDY    48  48 100 N5        29.91F
LURAY*         DRIZZLE   50  50 100 NE9       29.89F
NEW MARKET*    CLOUDY    48  47  95 N12G17    29.89F
STAUNTON*      CLOUDY    47  47  98 N10       29.88F FOG
WAYNESBORO*    CLOUDY    47  47 100 N7        29.86F

$$

WVZ021-048>050-054>055-250900-
EASTERN WEST VIRGINIA PANHANDLE

CITY           SKY/WX    TMP DP  RH WIND       PRES   REMARKS
MARTINSBURG    CLOUDY    50  46  86 N8        29.93F
PETERSBURG*    CLOUDY    50  48  94 N5        29.94S

$$

VAZ036>039-050-250900-
CENTRAL FOOTHILLS

CITY           SKY/WX    TMP DP  RH WIND       PRES   REMARKS
CHARLOTTESVILL CLOUDY    53  51  93 NE14G21   29.85F FOG
CULPEPER*      CLOUDY    52  51  97 N8        29.88F
ORANGE*        CLOUDY    50  50 100 NE8G17    29.86F
GORDONSVILLE*  CLOUDY    51  51 100 NE10G20   29.85F FOG
WARRENTON*     CLOUDY    53  49  87 N10       29.87F

$$

VAZ055>057-250900-
NORTH AND CENTRAL PIEDMONT

CITY           SKY/WX    TMP DP  RH WIND       PRES   REMARKS
FREDERICKSBRG* CLOUDY    54  54 100 N5        29.85F
STAFFORD*      CLOUDY    53  53 100 NE6       29.90F

$$

NCZ024-NYZ072-PAZ021-071-VAZ022-071-250900-
OTHER REGIONAL OBSERVATIONS

CITY           SKY/WX    TMP DP  RH WIND       PRES   REMARKS
NEW YORK CITY  LGT RAIN  49  47  93 E12G20    30.10F
PHILADELPHIA   CLOUDY    53  50  89 NE15G24   29.99F
PITTSBURGH     CLOUDY    53  46  77 SE12      29.89F
ROANOKE        RAIN      50  49  96 NE15G23   29.78F
RICHMOND       LGT RAIN  57  57 100 NE12      29.78F
RALEIGH        RAIN      60  58  92 SW6       29.62S FOG

$$

ANZ530>537-250900-
MARINE OBSERVATIONS

STATION/POSITION TIME  TEMP    WIND        PRES
                       AIR SEA DIR/SP/G
                 (UTC) (F)     (DEG/KT/KT) (MB)
THOMAS PT LIGHT  0800   55 57   50/ 18/ 20   N/A
BALT KEY BRIDGE  0748   54      30/ 13/ 16 1013.1F
COVE POINT       0742   56      80/ 16/ 20 1011.4F
LEWISETTA        0742   58 61   70/ 12/ 15 1009.7F
SOLOMONS ISLAND  0742   56 60   30/  7/ 10   N/A
PINEY POINT      0748           80/ 12/ 18   N/A

$$





USA.gov is the U.S. government's official web portal to all federal, state and local government web resources and services.